Location: Bakov nad Jizerou
(50.4784°N, 14.9394°E)
Time: 06:56:40
(UTC+00:00)

Cosmos 2237 - Pass Details

Date: 16 June 2021
Orbit: 847 x 854 km, 70.8° (Epoch: 28 July)

Event Time Altitude Azimuth Distance (km) Brightness Sun altitude
Rises 20:19:44 0° 196° (SSW) 3,399 7.0 -8.0°
Reaches altitude 10° 20:22:11 10° 193° (SSW) 2,467 6.3 -8.2°
Maximum altitude 20:27:46 62° 114° (ESE) 950 4.3 -8.8°
Drops below altitude 10° 20:33:23 10° 35° (NE) 2,482 6.9 -9.3°
Sets 20:35:52 0° 32° (NNE) 3,422 7.7 -9.5°
